Weather History for Key West NAF, FL

Change the Weather History Date:

Wednesday, April 10, 2013

  Actual Average Record
Temperature  
Mean Temperature 80 °F -  
Max Temperature 84 °F 80 °F 87 °F (1961)
Min Temperature 75 °F 71 °F 59 °F (1987)
Cooling Degree Days 14    
Growing Degree Days 30 (Base 50)    
Moisture  
Dew Point 73 °F    
Average Humidity 82    
Maximum Humidity 90    
Minimum Humidity 72    
Precipitation  
Precipitation 0.00 in - - ()
Sea Level Pressure  
Sea Level Pressure 30.01 in    
Wind  
Wind Speed 14 mph (East)    
Max Wind Speed 20 mph    
Max Gust Speed 26 mph    
Visibility 10 miles    
Events      
Averages and records for this station are not official NWS values.
T = Trace of Precipitation, MM = Missing Value Source: NWS Daily Summary

Daily Weather History Graph

Daily Weather History Graph

Search for Another Location

Airport:

Trip Planner

Search our weather history database for the weather conditions in past years. The results will help you decide how hot, cold, wet, or windy it might be!

Date:

Astronomy

Apr. 10, 2013 Rise Set
Actual Time 7:09 AM EDT 7:46 PM EDT
Civil Twilight 6:46 AM EDT 8:10 PM EDT
Nautical Twilight 6:19 AM EDT 8:37 PM EDT
Astronomical Twilight 5:51 AM EDT 9:04 PM EDT
Moon 7:08 AM EDT (4/10) 8:14 PM EDT (4/10)
Length of Visible Light 13h 23m
Length of Day
12h 37m
Waxing Crescent, 0% of the Moon is Illuminated
Apr 10
Waxing Crescent
Apr 18
First Quarter
Apr 25
Full
May 2
Last Quarter
May 9
New

Hourly Weather History & Observations

Time (EDT) Temp. Heat Index Dew Point Humidity Pressure Visibility Wind Dir Wind Speed Gust Speed Precip Events Conditions
12:53 AM 75.9 °F - 70.0 °F 82% 30.06 in 10.0 mi East 16.1 mph - N/A   Clear
1:53 AM 75.9 °F - 70.0 °F 82% 30.05 in 10.0 mi East 15.0 mph - N/A   Clear
2:49 AM 75.2 °F - 71.6 °F 89% 30.04 in 10.0 mi East 11.5 mph - N/A   Mostly Cloudy
2:53 AM 75.9 °F - 71.1 °F 85% 30.03 in 10.0 mi East 12.7 mph - N/A   Mostly Cloudy
3:25 AM 75.2 °F - 71.6 °F 89% 30.03 in 10.0 mi East 12.7 mph - 0.00 in   Overcast
3:32 AM 75.2 °F - 71.6 °F 89% 30.03 in 10.0 mi East 12.7 mph - 0.00 in   Overcast
3:53 AM 75.9 °F - 72.0 °F 87% 30.01 in 10.0 mi East 11.5 mph - 0.00 in   Mostly Cloudy
4:18 AM 75.2 °F - 71.6 °F 89% 30.02 in 10.0 mi East 11.5 mph - N/A   Scattered Clouds
4:53 AM 75.0 °F - 72.0 °F 90% 30.01 in 10.0 mi ENE 8.1 mph - N/A   Scattered Clouds
5:11 AM 75.2 °F - 71.6 °F 89% 30.01 in 10.0 mi ENE 5.8 mph - N/A   Mostly Cloudy
5:53 AM 75.9 °F - 72.0 °F 87% 30.01 in 10.0 mi East 10.4 mph - N/A   Scattered Clouds
6:53 AM 75.9 °F - 72.0 °F 87% 30.01 in 10.0 mi East 12.7 mph - N/A   Partly Cloudy
7:53 AM 77.0 °F - 73.0 °F 88% 30.01 in 10.0 mi ESE 11.5 mph - N/A   Scattered Clouds
8:53 AM 80.1 °F 84.2 °F 73.0 °F 79% 30.02 in 10.0 mi ESE 13.8 mph - N/A   Scattered Clouds
9:53 AM 82.0 °F 87.9 °F 73.9 °F 76% 30.03 in 10.0 mi ESE 16.1 mph - N/A   Scattered Clouds
10:53 AM 82.9 °F 89.4 °F 73.9 °F 74% 30.04 in 10.0 mi ESE 15.0 mph - N/A   Scattered Clouds
11:53 AM 82.9 °F 89.4 °F 73.9 °F 74% 30.04 in 10.0 mi ESE 15.0 mph 21.9 mph N/A   Scattered Clouds
12:53 PM 84.0 °F 91.9 °F 75.0 °F 74% 30.03 in 10.0 mi ESE 13.8 mph - N/A   Mostly Cloudy
1:53 PM 82.9 °F 89.4 °F 73.9 °F 74% 30.02 in 10.0 mi ESE 17.3 mph - N/A   Mostly Cloudy
2:53 PM 82.9 °F 89.4 °F 73.9 °F 74% 30.00 in 10.0 mi ESE 18.4 mph - N/A   Mostly Cloudy
3:53 PM 82.9 °F 88.8 °F 73.0 °F 72% 29.98 in 10.0 mi ESE 16.1 mph 24.2 mph N/A   Mostly Cloudy
4:53 PM 82.9 °F 89.4 °F 73.9 °F 74% 29.96 in 10.0 mi East 19.6 mph 24.2 mph N/A   Mostly Cloudy
5:53 PM 82.0 °F 87.9 °F 73.9 °F 76% 29.95 in 10.0 mi East 17.3 mph 24.2 mph N/A   Mostly Cloudy
6:53 PM 80.1 °F 84.2 °F 73.0 °F 79% 29.95 in 10.0 mi East 18.4 mph 26.5 mph N/A   Scattered Clouds
7:53 PM 78.1 °F - 73.0 °F 84% 29.95 in 10.0 mi East 17.3 mph 26.5 mph N/A   Scattered Clouds
8:53 PM 78.1 °F - 73.0 °F 84% 29.97 in 10.0 mi East 16.1 mph - N/A   Scattered Clouds
9:53 PM 78.1 °F - 73.0 °F 84% 29.98 in 10.0 mi ESE 17.3 mph - N/A   Scattered Clouds
10:53 PM 77.0 °F - 73.0 °F 88% 30.00 in 10.0 mi ESE 16.1 mph - N/A   Partly Cloudy
11:53 PM 77.0 °F - 73.0 °F 88% 29.99 in 10.0 mi ESE 13.8 mph - N/A   Clear